#datetime,building,power
2023-01-10T00:00:00,mfh,38.28
2023-01-10T00:01:00,mfh,37.60
2023-01-10T00:02:00,mfh,38.07
2023-01-10T00:03:00,mfh,37.85
2023-01-10T00:04:00,mfh,37.89
2023-01-10T00:05:00,mfh,38.55
2023-01-10T00:06:00,mfh,38.52
2023-01-10T00:07:00,mfh,38.44
2023-01-10T00:08:00,mfh,38.54
2023-01-10T00:09:00,mfh,37.82
2023-01-10T00:10:00,mfh,37.71
2023-01-10T00:11:00,mfh,38.08
2023-01-10T00:12:00,mfh,38.32
2023-01-10T00:13:00,mfh,38.38
2023-01-10T00:14:00,mfh,38.36
2023-01-10T00:15:00,mfh,38.50
2023-01-10T00:16:00,mfh,38.96
2023-01-10T00:17:00,mfh,38.52
2023-01-10T00:18:00,mfh,37.79
2023-01-10T00:19:00,mfh,37.83
2023-01-10T00:20:00,mfh,37.76
2023-01-10T00:21:00,mfh,38.81
2023-01-10T00:22:00,mfh,38.49
2023-01-10T00:23:00,mfh,38.44
2023-01-10T00:24:00,mfh,38.46
2023-01-10T00:25:00,mfh,38.40
2023-01-10T00:26:00,mfh,39.71
2023-01-10T00:27:00,mfh,39.77
2023-01-10T00:28:00,mfh,39.76
2023-01-10T00:29:00,mfh,40.22
2023-01-10T00:30:00,mfh,40.56
2023-01-10T00:31:00,mfh,40.24
2023-01-10T00:32:00,mfh,40.35
2023-01-10T00:33:00,mfh,40.45
2023-01-10T00:34:00,mfh,39.73
2023-01-10T00:35:00,mfh,39.81
2023-01-10T00:36:00,mfh,39.82
2023-01-10T00:37:00,mfh,39.82
2023-01-10T00:38:00,mfh,40.41
2023-01-10T00:39:00,mfh,40.42
2023-01-10T00:40:00,mfh,40.50
2023-01-10T00:41:00,mfh,40.52
2023-01-10T00:42:00,mfh,41.29
2023-01-10T00:43:00,mfh,40.58
2023-01-10T00:44:00,mfh,40.70
2023-01-10T00:45:00,mfh,32.06
2023-01-10T00:46:00,mfh,31.66
2023-01-10T00:47:00,mfh,20.77
2023-01-10T00:48:00,mfh,20.63
2023-01-10T00:49:00,mfh,18.58
2023-01-10T00:50:00,mfh,18.55
2023-01-10T00:51:00,mfh,17.88
2023-01-10T00:52:00,mfh,17.85
2023-01-10T00:53:00,mfh,17.62
2023-01-10T00:54:00,mfh,18.26
2023-01-10T00:55:00,mfh,19.25
2023-01-10T00:56:00,mfh,18.54
2023-01-10T00:57:00,mfh,18.62
2023-01-10T00:58:00,mfh,18.54
2023-01-10T00:59:00,mfh,18.28
2023-01-10T01:00:00,mfh,17.70
2023-01-10T01:01:00,mfh,17.77
2023-01-10T01:02:00,mfh,17.77
2023-01-10T01:03:00,mfh,18.34
2023-01-10T01:04:00,mfh,18.33
2023-01-10T01:05:00,mfh,18.30
2023-01-10T01:06:00,mfh,18.50
2023-01-10T01:07:00,mfh,18.47
2023-01-10T01:08:00,mfh,17.60
2023-01-10T01:09:00,mfh,17.61
2023-01-10T01:10:00,mfh,17.58
2023-01-10T01:11:00,mfh,18.30
2023-01-10T01:12:00,mfh,18.32
2023-01-10T01:13:00,mfh,18.28
2023-01-10T01:14:00,mfh,18.37
2023-01-10T01:15:00,mfh,17.75
2023-01-10T01:16:00,mfh,17.91
2023-01-10T01:17:00,mfh,17.94
2023-01-10T01:18:00,mfh,19.01
2023-01-10T01:19:00,mfh,19.29
2023-01-10T01:20:00,mfh,17.88
2023-01-10T01:21:00,mfh,18.34
2023-01-10T01:22:00,mfh,17.94
2023-01-10T01:23:00,mfh,18.50
2023-01-10T01:24:00,mfh,18.44
2023-01-10T01:25:00,mfh,18.63
2023-01-10T01:26:00,mfh,18.64
2023-01-10T01:27:00,mfh,19.18
2023-01-10T01:28:00,mfh,17.95
2023-01-10T01:29:00,mfh,17.83
2023-01-10T01:30:00,mfh,17.75
2023-01-10T01:31:00,mfh,19.05
2023-01-10T01:32:00,mfh,18.55
2023-01-10T01:33:00,mfh,18.93
2023-01-10T01:34:00,mfh,18.30
2023-01-10T01:35:00,mfh,18.32
2023-01-10T01:36:00,mfh,18.33
2023-01-10T01:37:00,mfh,17.75
2023-01-10T01:38:00,mfh,19.85
2023-01-10T01:39:00,mfh,19.76
2023-01-10T01:40:00,mfh,20.33
2023-01-10T01:41:00,mfh,20.31
2023-01-10T01:42:00,mfh,20.47
2023-01-10T01:43:00,mfh,20.42
2023-01-10T01:44:00,mfh,22.02
2023-01-10T01:45:00,mfh,21.45
2023-01-10T01:46:00,mfh,22.30
2023-01-10T01:47:00,mfh,21.46
2023-01-10T01:48:00,mfh,22.14
2023-01-10T01:49:00,mfh,21.02
2023-01-10T01:50:00,mfh,20.44
2023-01-10T01:51:00,mfh,20.39
2023-01-10T01:52:00,mfh,20.35
2023-01-10T01:53:00,mfh,19.69
2023-01-10T01:54:00,mfh,19.67
2023-01-10T01:55:00,mfh,19.80
2023-01-10T01:56:00,mfh,20.23
2023-01-10T01:57:00,mfh,20.35
2023-01-10T01:58:00,mfh,20.27
2023-01-10T01:59:00,mfh,20.28
2023-01-10T02:00:00,mfh,20.22
2023-01-10T02:01:00,mfh,18.43
2023-01-10T02:02:00,mfh,17.72
2023-01-10T02:03:00,mfh,17.72
2023-01-10T02:04:00,mfh,17.70
2023-01-10T02:05:00,mfh,18.35
2023-01-10T02:06:00,mfh,18.57
2023-01-10T02:07:00,mfh,18.81
2023-01-10T02:08:00,mfh,18.92
2023-01-10T02:09:00,mfh,18.14
2023-01-10T02:10:00,mfh,18.22
2023-01-10T02:11:00,mfh,18.21
2023-01-10T02:12:00,mfh,18.84
2023-01-10T02:13:00,mfh,18.98
2023-01-10T02:14:00,mfh,19.01
2023-01-10T02:15:00,mfh,18.72
2023-01-10T02:16:00,mfh,18.59
2023-01-10T02:17:00,mfh,18.61
2023-01-10T02:18:00,mfh,17.97
2023-01-10T02:19:00,mfh,17.95
2023-01-10T02:20:00,mfh,17.89
2023-01-10T02:21:00,mfh,18.46
2023-01-10T02:22:00,mfh,18.43
2023-01-10T02:23:00,mfh,18.39
2023-01-10T02:24:00,mfh,18.40
2023-01-10T02:25:00,mfh,18.49
2023-01-10T02:26:00,mfh,17.70
2023-01-10T02:27:00,mfh,17.78
2023-01-10T02:28:00,mfh,17.92
2023-01-10T02:29:00,mfh,18.61
2023-01-10T02:30:00,mfh,18.45
2023-01-10T02:31:00,mfh,18.40
2023-01-10T02:32:00,mfh,18.42
2023-01-10T02:33:00,mfh,18.46
2023-01-10T02:34:00,mfh,19.16
2023-01-10T02:35:00,mfh,17.71
2023-01-10T02:36:00,mfh,17.70
2023-01-10T02:37:00,mfh,17.65
2023-01-10T02:38:00,mfh,18.37
2023-01-10T02:39:00,mfh,18.41
2023-01-10T02:40:00,mfh,18.33
2023-01-10T02:41:00,mfh,18.32
2023-01-10T02:42:00,mfh,18.51
2023-01-10T02:43:00,mfh,17.80
2023-01-10T02:44:00,mfh,17.86
2023-01-10T02:45:00,mfh,17.71
2023-01-10T02:46:00,mfh,18.65
2023-01-10T02:47:00,mfh,19.99
2023-01-10T02:48:00,mfh,18.76
2023-01-10T02:49:00,mfh,20.62
2023-01-10T02:50:00,mfh,20.76
2023-01-10T02:51:00,mfh,20.02
2023-01-10T02:52:00,mfh,20.01
2023-01-10T02:53:00,mfh,20.02
2023-01-10T02:54:00,mfh,20.10
2023-01-10T02:55:00,mfh,20.37
2023-01-10T02:56:00,mfh,20.33
2023-01-10T02:57:00,mfh,20.34
2023-01-10T02:58:00,mfh,20.31
2023-01-10T02:59:00,mfh,21.21
2023-01-10T03:00:00,mfh,21.01
2023-01-10T03:01:00,mfh,20.53
2023-01-10T03:02:00,mfh,20.46
2023-01-10T03:03:00,mfh,21.08
2023-01-10T03:04:00,mfh,20.30
2023-01-10T03:05:00,mfh,20.29
2023-01-10T03:06:00,mfh,20.29
2023-01-10T03:07:00,mfh,20.39
2023-01-10T03:08:00,mfh,20.14
2023-01-10T03:09:00,mfh,19.81
2023-01-10T03:10:00,mfh,19.70
2023-01-10T03:11:00,mfh,20.26
2023-01-10T03:12:00,mfh,18.23
2023-01-10T03:13:00,mfh,18.48
2023-01-10T03:14:00,mfh,18.50
2023-01-10T03:15:00,mfh,18.49
2023-01-10T03:16:00,mfh,17.84
2023-01-10T03:17:00,mfh,18.07
2023-01-10T03:18:00,mfh,18.40
2023-01-10T03:19:00,mfh,18.57
2023-01-10T03:20:00,mfh,18.55
2023-01-10T03:21:00,mfh,18.86
2023-01-10T03:22:00,mfh,18.71
2023-01-10T03:23:00,mfh,18.75
2023-01-10T03:24:00,mfh,18.77
2023-01-10T03:25:00,mfh,18.03
2023-01-10T03:26:00,mfh,18.01
2023-01-10T03:27:00,mfh,17.98
2023-01-10T03:28:00,mfh,18.56
2023-01-10T03:29:00,mfh,18.44
2023-01-10T03:30:00,mfh,18.91
2023-01-10T03:31:00,mfh,18.65
2023-01-10T03:32:00,mfh,18.77
2023-01-10T03:33:00,mfh,18.47
2023-01-10T03:34:00,mfh,18.13
2023-01-10T03:35:00,mfh,18.23
2023-01-10T03:36:00,mfh,18.88
2023-01-10T03:37:00,mfh,19.23
2023-01-10T03:38:00,mfh,18.45
2023-01-10T03:39:00,mfh,18.55
2023-01-10T03:40:00,mfh,18.56
2023-01-10T03:41:00,mfh,17.91
2023-01-10T03:42:00,mfh,17.80
2023-01-10T03:43:00,mfh,18.26
2023-01-10T03:44:00,mfh,18.43
2023-01-10T03:45:00,mfh,18.64
2023-01-10T03:46:00,mfh,18.43
2023-01-10T03:47:00,mfh,18.57
2023-01-10T03:48:00,mfh,18.62
2023-01-10T03:49:00,mfh,17.77
2023-01-10T03:50:00,mfh,17.84
2023-01-10T03:51:00,mfh,17.77
2023-01-10T03:52:00,mfh,18.46
2023-01-10T03:53:00,mfh,18.45
2023-01-10T03:54:00,mfh,18.41
2023-01-10T03:55:00,mfh,18.41
2023-01-10T03:56:00,mfh,18.39
2023-01-10T03:57:00,mfh,18.96
2023-01-10T03:58:00,mfh,19.89
2023-01-10T03:59:00,mfh,19.91
2023-01-10T04:00:00,mfh,19.78
2023-01-10T04:01:00,mfh,20.51
2023-01-10T04:02:00,mfh,20.55
2023-01-10T04:03:00,mfh,20.37
2023-01-10T04:04:00,mfh,20.40
2023-01-10T04:05:00,mfh,20.36
2023-01-10T04:06:00,mfh,19.58
2023-01-10T04:07:00,mfh,19.65
2023-01-10T04:08:00,mfh,19.77
2023-01-10T04:09:00,mfh,20.79
2023-01-10T04:10:00,mfh,20.41
2023-01-10T04:11:00,mfh,20.53
2023-01-10T04:12:00,mfh,20.78
2023-01-10T04:13:00,mfh,20.67
2023-01-10T04:14:00,mfh,19.98
2023-01-10T04:15:00,mfh,20.08
2023-01-10T04:16:00,mfh,20.09
2023-01-10T04:17:00,mfh,29.56
2023-01-10T04:18:00,mfh,30.66
2023-01-10T04:19:00,mfh,31.39
2023-01-10T04:20:00,mfh,31.53
2023-01-10T04:21:00,mfh,31.57
2023-01-10T04:22:00,mfh,29.29
2023-01-10T04:23:00,mfh,28.70
2023-01-10T04:24:00,mfh,28.55
2023-01-10T04:25:00,mfh,28.53
2023-01-10T04:26:00,mfh,29.85
2023-01-10T04:27:00,mfh,31.65
2023-01-10T04:28:00,mfh,31.86
2023-01-10T04:29:00,mfh,31.92
2023-01-10T04:30:00,mfh,31.90
2023-01-10T04:31:00,mfh,31.17
2023-01-10T04:32:00,mfh,29.54
2023-01-10T04:33:00,mfh,29.52
2023-01-10T04:34:00,mfh,31.12
2023-01-10T04:35:00,mfh,30.12
2023-01-10T04:36:00,mfh,30.28
2023-01-10T04:37:00,mfh,30.80
2023-01-10T04:38:00,mfh,30.45
2023-01-10T04:39:00,mfh,29.51
2023-01-10T04:40:00,mfh,29.52
2023-01-10T04:41:00,mfh,28.63
2023-01-10T04:42:00,mfh,29.25
2023-01-10T04:43:00,mfh,29.27
2023-01-10T04:44:00,mfh,29.37
2023-01-10T04:45:00,mfh,29.49
2023-01-10T04:46:00,mfh,29.93
2023-01-10T04:47:00,mfh,29.34
2023-01-10T04:48:00,mfh,28.99
2023-01-10T04:49:00,mfh,28.78
2023-01-10T04:50:00,mfh,28.73
2023-01-10T04:51:00,mfh,29.24
2023-01-10T04:52:00,mfh,29.26
2023-01-10T04:53:00,mfh,29.28
2023-01-10T04:54:00,mfh,29.32
2023-01-10T04:55:00,mfh,29.23
2023-01-10T04:56:00,mfh,28.48
2023-01-10T04:57:00,mfh,28.49
2023-01-10T04:58:00,mfh,28.68
2023-01-10T04:59:00,mfh,29.36
2023-01-10T05:00:00,mfh,29.40
2023-01-10T05:01:00,mfh,47.55
2023-01-10T05:02:00,mfh,51.25
2023-01-10T05:03:00,mfh,51.38
2023-01-10T05:04:00,mfh,51.66
2023-01-10T05:05:00,mfh,52.70
2023-01-10T05:06:00,mfh,52.51
2023-01-10T05:07:00,mfh,51.69
2023-01-10T05:08:00,mfh,51.90
2023-01-10T05:09:00,mfh,51.45
2023-01-10T05:10:00,mfh,52.75
2023-01-10T05:11:00,mfh,52.26
2023-01-10T05:12:00,mfh,52.54
2023-01-10T05:13:00,mfh,52.13
2023-01-10T05:14:00,mfh,52.82
2023-01-10T05:15:00,mfh,52.84
2023-01-10T05:16:00,mfh,53.50
2023-01-10T05:17:00,mfh,53.51
2023-01-10T05:18:00,mfh,53.69
2023-01-10T05:19:00,mfh,52.73
2023-01-10T05:20:00,mfh,52.64
2023-01-10T05:21:00,mfh,51.49
2023-01-10T05:22:00,mfh,51.45
2023-01-10T05:23:00,mfh,51.32
2023-01-10T05:24:00,mfh,51.59
2023-01-10T05:25:00,mfh,52.33
2023-01-10T05:26:00,mfh,52.44
2023-01-10T05:27:00,mfh,52.10
2023-01-10T05:28:00,mfh,52.38
2023-01-10T05:29:00,mfh,52.55
2023-01-10T05:30:00,mfh,49.70
2023-01-10T05:31:00,mfh,49.84
2023-01-10T05:32:00,mfh,50.35
2023-01-10T05:33:00,mfh,50.59
2023-01-10T05:34:00,mfh,50.37
2023-01-10T05:35:00,mfh,50.21
2023-01-10T05:36:00,mfh,50.12
2023-01-10T05:37:00,mfh,49.66
2023-01-10T05:38:00,mfh,49.70
2023-01-10T05:39:00,mfh,50.00
2023-01-10T05:40:00,mfh,50.81
2023-01-10T05:41:00,mfh,50.29
2023-01-10T05:42:00,mfh,50.31
2023-01-10T05:43:00,mfh,50.16
2023-01-10T05:44:00,mfh,50.53
2023-01-10T05:45:00,mfh,49.39
2023-01-10T05:46:00,mfh,49.17
2023-01-10T05:47:00,mfh,49.47
2023-01-10T05:48:00,mfh,56.62
2023-01-10T05:49:00,mfh,58.10
2023-01-10T05:50:00,mfh,59.20
2023-01-10T05:51:00,mfh,59.66
2023-01-10T05:52:00,mfh,59.43
2023-01-10T05:53:00,mfh,59.44
2023-01-10T05:54:00,mfh,58.59
2023-01-10T05:55:00,mfh,58.96
2023-01-10T05:56:00,mfh,59.01
2023-01-10T05:57:00,mfh,59.29
2023-01-10T05:58:00,mfh,59.38
2023-01-10T05:59:00,mfh,59.33
2023-01-10T06:00:00,mfh,59.33
2023-01-10T06:01:00,mfh,64.24
2023-01-10T06:02:00,mfh,63.34
2023-01-10T06:03:00,mfh,63.05
2023-01-10T06:04:00,mfh,63.07
2023-01-10T06:05:00,mfh,63.72
2023-01-10T06:06:00,mfh,63.38
2023-01-10T06:07:00,mfh,63.22
2023-01-10T06:08:00,mfh,64.21
2023-01-10T06:09:00,mfh,63.45
2023-01-10T06:10:00,mfh,63.54
2023-01-10T06:11:00,mfh,63.98
2023-01-10T06:12:00,mfh,56.70
2023-01-10T06:13:00,mfh,56.14
2023-01-10T06:14:00,mfh,56.17
2023-01-10T06:15:00,mfh,55.79
2023-01-10T06:16:00,mfh,55.77
2023-01-10T06:17:00,mfh,57.59
2023-01-10T06:18:00,mfh,58.61
2023-01-10T06:19:00,mfh,57.77
2023-01-10T06:20:00,mfh,56.87
2023-01-10T06:21:00,mfh,56.70
2023-01-10T06:22:00,mfh,56.91
2023-01-10T06:23:00,mfh,57.18
2023-01-10T06:24:00,mfh,58.31
2023-01-10T06:25:00,mfh,57.34
2023-01-10T06:26:00,mfh,57.68
2023-01-10T06:27:00,mfh,58.17
2023-01-10T06:28:00,mfh,66.08
2023-01-10T06:29:00,mfh,76.78
2023-01-10T06:30:00,mfh,78.00
2023-01-10T06:31:00,mfh,79.08
2023-01-10T06:32:00,mfh,78.33
2023-01-10T06:33:00,mfh,78.25
2023-01-10T06:34:00,mfh,78.52
2023-01-10T06:35:00,mfh,78.07
2023-01-10T06:36:00,mfh,77.97
2023-01-10T06:37:00,mfh,77.33
2023-01-10T06:38:00,mfh,77.05
2023-01-10T06:39:00,mfh,76.93
2023-01-10T06:40:00,mfh,70.09
2023-01-10T06:41:00,mfh,70.31
2023-01-10T06:42:00,mfh,70.26
2023-01-10T06:43:00,mfh,70.40
2023-01-10T06:44:00,mfh,71.11
2023-01-10T06:45:00,mfh,69.08
2023-01-10T06:46:00,mfh,68.94
2023-01-10T06:47:00,mfh,63.20
2023-01-10T06:48:00,mfh,62.51
2023-01-10T06:49:00,mfh,62.45
2023-01-10T06:50:00,mfh,62.48
2023-01-10T06:51:00,mfh,63.39
2023-01-10T06:52:00,mfh,63.45
2023-01-10T06:53:00,mfh,63.56
2023-01-10T06:54:00,mfh,63.62
2023-01-10T06:55:00,mfh,64.28
2023-01-10T06:56:00,mfh,64.51
2023-01-10T06:57:00,mfh,63.75
2023-01-10T06:58:00,mfh,63.70
2023-01-10T06:59:00,mfh,63.60
2023-01-10T07:00:00,mfh,63.03
2023-01-10T07:01:00,mfh,55.47
2023-01-10T07:02:00,mfh,55.16
2023-01-10T07:03:00,mfh,55.78
2023-01-10T07:04:00,mfh,57.13
2023-01-10T07:05:00,mfh,56.84
2023-01-10T07:06:00,mfh,57.56
2023-01-10T07:07:00,mfh,57.67
2023-01-10T07:08:00,mfh,57.87
2023-01-10T07:09:00,mfh,57.66
2023-01-10T07:10:00,mfh,57.65
2023-01-10T07:11:00,mfh,57.02
2023-01-10T07:12:00,mfh,57.61
2023-01-10T07:13:00,mfh,58.24
2023-01-10T07:14:00,mfh,59.63
2023-01-10T07:15:00,mfh,59.30
2023-01-10T07:16:00,mfh,59.38
2023-01-10T07:17:00,mfh,60.42
2023-01-10T07:18:00,mfh,59.70
2023-01-10T07:19:00,mfh,60.18
2023-01-10T07:20:00,mfh,59.67
2023-01-10T07:21:00,mfh,59.46
2023-01-10T07:22:00,mfh,58.28
2023-01-10T07:23:00,mfh,57.63
2023-01-10T07:24:00,mfh,57.58
2023-01-10T07:25:00,mfh,58.21
2023-01-10T07:26:00,mfh,59.09
2023-01-10T07:27:00,mfh,61.27
2023-01-10T07:28:00,mfh,60.93
2023-01-10T07:29:00,mfh,61.72
2023-01-10T07:30:00,mfh,61.10
2023-01-10T07:31:00,mfh,62.01
2023-01-10T07:32:00,mfh,61.59
2023-01-10T07:33:00,mfh,61.67
2023-01-10T07:34:00,mfh,60.92
2023-01-10T07:35:00,mfh,61.39
2023-01-10T07:36:00,mfh,61.42
2023-01-10T07:37:00,mfh,62.07
2023-01-10T07:38:00,mfh,63.43
2023-01-10T07:39:00,mfh,63.89
2023-01-10T07:40:00,mfh,63.84
2023-01-10T07:41:00,mfh,64.62
2023-01-10T07:42:00,mfh,64.17
2023-01-10T07:43:00,mfh,63.97
2023-01-10T07:44:00,mfh,65.34
2023-01-10T07:45:00,mfh,64.15
2023-01-10T07:46:00,mfh,64.04
2023-01-10T07:47:00,mfh,63.32
2023-01-10T07:48:00,mfh,79.53
2023-01-10T07:49:00,mfh,81.73
2023-01-10T07:50:00,mfh,81.64
2023-01-10T07:51:00,mfh,81.09
2023-01-10T07:52:00,mfh,80.51
2023-01-10T07:53:00,mfh,80.70
2023-01-10T07:54:00,mfh,80.24
2023-01-10T07:55:00,mfh,80.25
2023-01-10T07:56:00,mfh,82.58
2023-01-10T07:57:00,mfh,82.67
2023-01-10T07:58:00,mfh,81.78
2023-01-10T07:59:00,mfh,81.75
2023-01-10T08:00:00,mfh,81.77
2023-01-10T08:01:00,mfh,81.98
2023-01-10T08:02:00,mfh,81.52
2023-01-10T08:03:00,mfh,81.63
2023-01-10T08:04:00,mfh,81.40
2023-01-10T08:05:00,mfh,81.30
2023-01-10T08:06:00,mfh,80.27
2023-01-10T08:07:00,mfh,74.61
2023-01-10T08:08:00,mfh,73.82
2023-01-10T08:09:00,mfh,79.61
2023-01-10T08:10:00,mfh,79.76
2023-01-10T08:11:00,mfh,86.41
2023-01-10T08:12:00,mfh,87.00
2023-01-10T08:13:00,mfh,87.13
2023-01-10T08:14:00,mfh,87.28
2023-01-10T08:15:00,mfh,87.18
2023-01-10T08:16:00,mfh,87.51
2023-01-10T08:17:00,mfh,87.53
2023-01-10T08:18:00,mfh,87.54
2023-01-10T08:19:00,mfh,87.38
2023-01-10T08:20:00,mfh,87.23
2023-01-10T08:21:00,mfh,87.12
2023-01-10T08:22:00,mfh,87.27
2023-01-10T08:23:00,mfh,87.36
2023-01-10T08:24:00,mfh,87.15
2023-01-10T08:25:00,mfh,86.78
2023-01-10T08:26:00,mfh,86.36
2023-01-10T08:27:00,mfh,86.27
2023-01-10T08:28:00,mfh,86.34
2023-01-10T08:29:00,mfh,86.29
2023-01-10T08:30:00,mfh,86.54
2023-01-10T08:31:00,mfh,86.25
2023-01-10T08:32:00,mfh,86.38
2023-01-10T08:33:00,mfh,86.18
2023-01-10T08:34:00,mfh,86.35
2023-01-10T08:35:00,mfh,86.47
2023-01-10T08:36:00,mfh,86.71
2023-01-10T08:37:00,mfh,86.50
2023-01-10T08:38:00,mfh,86.62
2023-01-10T08:39:00,mfh,86.85
2023-01-10T08:40:00,mfh,86.81
2023-01-10T08:41:00,mfh,86.75
2023-01-10T08:42:00,mfh,86.79
2023-01-10T08:43:00,mfh,86.89
2023-01-10T08:44:00,mfh,86.71
2023-01-10T08:45:00,mfh,86.82
2023-01-10T08:46:00,mfh,86.95
2023-01-10T08:47:00,mfh,87.00
2023-01-10T08:48:00,mfh,87.12
2023-01-10T08:49:00,mfh,86.93
2023-01-10T08:50:00,mfh,87.27
2023-01-10T08:51:00,mfh,87.08
2023-01-10T08:52:00,mfh,87.25
2023-01-10T08:53:00,mfh,87.35
2023-01-10T08:54:00,mfh,87.22
2023-01-10T08:55:00,mfh,87.42
2023-01-10T08:56:00,mfh,87.50
2023-01-10T08:57:00,mfh,87.17
2023-01-10T08:58:00,mfh,87.38
2023-01-10T08:59:00,mfh,87.30
2023-01-10T09:00:00,mfh,87.31
2023-01-10T09:01:00,mfh,87.30
2023-01-10T09:02:00,mfh,87.54
2023-01-10T09:03:00,mfh,87.87
2023-01-10T09:04:00,mfh,87.71
2023-01-10T09:05:00,mfh,87.69
2023-01-10T09:06:00,mfh,87.82
2023-01-10T09:07:00,mfh,87.62
2023-01-10T09:08:00,mfh,87.31
2023-01-10T09:09:00,mfh,87.18
2023-01-10T09:10:00,mfh,87.11
2023-01-10T09:11:00,mfh,87.18
2023-01-10T09:12:00,mfh,87.42
2023-01-10T09:13:00,mfh,84.42
2023-01-10T09:14:00,mfh,84.49
2023-01-10T09:15:00,mfh,83.97
2023-01-10T09:16:00,mfh,83.21
2023-01-10T09:17:00,mfh,83.15
2023-01-10T09:18:00,mfh,83.96
2023-01-10T09:19:00,mfh,83.38
2023-01-10T09:20:00,mfh,83.57
2023-01-10T09:21:00,mfh,83.45
2023-01-10T09:22:00,mfh,83.28
2023-01-10T09:23:00,mfh,83.44
2023-01-10T09:24:00,mfh,83.59
2023-01-10T09:25:00,mfh,83.57
2023-01-10T09:26:00,mfh,84.22
2023-01-10T09:27:00,mfh,83.99
2023-01-10T09:28:00,mfh,83.94
2023-01-10T09:29:00,mfh,86.86
2023-01-10T09:30:00,mfh,86.96
2023-01-10T09:31:00,mfh,84.81
2023-01-10T09:32:00,mfh,84.98
2023-01-10T09:33:00,mfh,84.73
2023-01-10T09:34:00,mfh,84.89
2023-01-10T09:35:00,mfh,85.21
2023-01-10T09:36:00,mfh,85.14
2023-01-10T09:37:00,mfh,85.10
2023-01-10T09:38:00,mfh,87.21
2023-01-10T09:39:00,mfh,87.31
2023-01-10T09:40:00,mfh,87.13
2023-01-10T09:41:00,mfh,86.99
2023-01-10T09:42:00,mfh,86.90
2023-01-10T09:43:00,mfh,86.88
2023-01-10T09:44:00,mfh,86.82
2023-01-10T09:45:00,mfh,86.86
2023-01-10T09:46:00,mfh,86.81
2023-01-10T09:47:00,mfh,86.75
2023-01-10T09:48:00,mfh,87.18
2023-01-10T09:49:00,mfh,87.02
2023-01-10T09:50:00,mfh,87.03
2023-01-10T09:51:00,mfh,87.24
2023-01-10T09:52:00,mfh,87.19
2023-01-10T09:53:00,mfh,87.25
2023-01-10T09:54:00,mfh,87.28
2023-01-10T09:55:00,mfh,87.23
2023-01-10T09:56:00,mfh,87.53
2023-01-10T09:57:00,mfh,87.26
2023-01-10T09:58:00,mfh,87.23
2023-01-10T09:59:00,mfh,87.33
2023-01-10T10:00:00,mfh,87.17
2023-01-10T10:01:00,mfh,87.12
2023-01-10T10:02:00,mfh,87.34
2023-01-10T10:03:00,mfh,87.20
2023-01-10T10:04:00,mfh,87.08
2023-01-10T10:05:00,mfh,87.08
2023-01-10T10:06:00,mfh,87.11
2023-01-10T10:07:00,mfh,87.13
2023-01-10T10:08:00,mfh,87.11
2023-01-10T10:09:00,mfh,87.21
2023-01-10T10:10:00,mfh,83.26
2023-01-10T10:11:00,mfh,83.34
2023-01-10T10:12:00,mfh,83.34
2023-01-10T10:13:00,mfh,83.14
2023-01-10T10:14:00,mfh,83.07
2023-01-10T10:15:00,mfh,83.26
2023-01-10T10:16:00,mfh,83.98
2023-01-10T10:17:00,mfh,83.47
2023-01-10T10:18:00,mfh,83.47
2023-01-10T10:19:00,mfh,83.23
2023-01-10T10:20:00,mfh,86.82
2023-01-10T10:21:00,mfh,87.15
2023-01-10T10:22:00,mfh,87.52
2023-01-10T10:23:00,mfh,87.72
2023-01-10T10:24:00,mfh,87.62
2023-01-10T10:25:00,mfh,87.65
2023-01-10T10:26:00,mfh,87.61
2023-01-10T10:27:00,mfh,87.52
2023-01-10T10:28:00,mfh,87.57
2023-01-10T10:29:00,mfh,87.61
2023-01-10T10:30:00,mfh,87.53
2023-01-10T10:31:00,mfh,87.51
2023-01-10T10:32:00,mfh,87.80
2023-01-10T10:33:00,mfh,87.58
2023-01-10T10:34:00,mfh,87.52
2023-01-10T10:35:00,mfh,87.37
2023-01-10T10:36:00,mfh,87.38
2023-01-10T10:37:00,mfh,79.66
2023-01-10T10:38:00,mfh,84.56
2023-01-10T10:39:00,mfh,84.62
2023-01-10T10:40:00,mfh,84.63
2023-01-10T10:41:00,mfh,84.83
2023-01-10T10:42:00,mfh,84.82
2023-01-10T10:43:00,mfh,84.83
2023-01-10T10:44:00,mfh,84.11
2023-01-10T10:45:00,mfh,83.85
2023-01-10T10:46:00,mfh,83.79
2023-01-10T10:47:00,mfh,87.63
2023-01-10T10:48:00,mfh,87.63
2023-01-10T10:49:00,mfh,87.58
2023-01-10T10:50:00,mfh,87.80
2023-01-10T10:51:00,mfh,88.07
2023-01-10T10:52:00,mfh,87.69
2023-01-10T10:53:00,mfh,87.86
2023-01-10T10:54:00,mfh,87.89
2023-01-10T10:55:00,mfh,87.77
2023-01-10T10:56:00,mfh,87.50
2023-01-10T10:57:00,mfh,87.45
2023-01-10T10:58:00,mfh,87.48
2023-01-10T10:59:00,mfh,87.47
2023-01-10T11:00:00,mfh,87.64
2023-01-10T11:01:00,mfh,87.88
2023-01-10T11:02:00,mfh,87.85
2023-01-10T11:03:00,mfh,87.84
2023-01-10T11:04:00,mfh,87.87
2023-01-10T11:05:00,mfh,87.82
2023-01-10T11:06:00,mfh,88.03
2023-01-10T11:07:00,mfh,88.23
2023-01-10T11:08:00,mfh,88.08
2023-01-10T11:09:00,mfh,88.08
2023-01-10T11:10:00,mfh,87.70
2023-01-10T11:11:00,mfh,87.62
2023-01-10T11:12:00,mfh,87.39
2023-01-10T11:13:00,mfh,87.28
2023-01-10T11:14:00,mfh,87.39
2023-01-10T11:15:00,mfh,83.89
2023-01-10T11:16:00,mfh,83.80
2023-01-10T11:17:00,mfh,83.86
2023-01-10T11:18:00,mfh,83.89
2023-01-10T11:19:00,mfh,83.84
2023-01-10T11:20:00,mfh,75.65
2023-01-10T11:21:00,mfh,81.69
2023-01-10T11:22:00,mfh,82.85
2023-01-10T11:23:00,mfh,82.42
2023-01-10T11:24:00,mfh,82.80
2023-01-10T11:25:00,mfh,82.75
2023-01-10T11:26:00,mfh,82.50
2023-01-10T11:27:00,mfh,82.01
2023-01-10T11:28:00,mfh,82.34
2023-01-10T11:29:00,mfh,84.04
2023-01-10T11:30:00,mfh,87.57
2023-01-10T11:31:00,mfh,85.92
2023-01-10T11:32:00,mfh,87.92
2023-01-10T11:33:00,mfh,87.70
2023-01-10T11:34:00,mfh,87.78
2023-01-10T11:35:00,mfh,87.92
2023-01-10T11:36:00,mfh,87.73
2023-01-10T11:37:00,mfh,87.48
2023-01-10T11:38:00,mfh,87.34
2023-01-10T11:39:00,mfh,87.40
2023-01-10T11:40:00,mfh,87.37
2023-01-10T11:41:00,mfh,87.36
2023-01-10T11:42:00,mfh,87.69
2023-01-10T11:43:00,mfh,87.66
2023-01-10T11:44:00,mfh,87.72
2023-01-10T11:45:00,mfh,87.90
2023-01-10T11:46:00,mfh,87.56
2023-01-10T11:47:00,mfh,87.74
2023-01-10T11:48:00,mfh,87.81
2023-01-10T11:49:00,mfh,87.43
2023-01-10T11:50:00,mfh,87.72
2023-01-10T11:51:00,mfh,87.55
2023-01-10T11:52:00,mfh,87.31
2023-01-10T11:53:00,mfh,87.39
2023-01-10T11:54:00,mfh,87.64
2023-01-10T11:55:00,mfh,87.28
2023-01-10T11:56:00,mfh,87.40
2023-01-10T11:57:00,mfh,87.51
2023-01-10T11:58:00,mfh,87.23
2023-01-10T11:59:00,mfh,88.12
2023-01-10T12:00:00,mfh,88.27
2023-01-10T12:01:00,mfh,88.23
2023-01-10T12:02:00,mfh,88.33
2023-01-10T12:03:00,mfh,88.39
2023-01-10T12:04:00,mfh,88.41
2023-01-10T12:05:00,mfh,88.20
2023-01-10T12:06:00,mfh,88.51
2023-01-10T12:07:00,mfh,88.32
2023-01-10T12:08:00,mfh,88.59
2023-01-10T12:09:00,mfh,88.59
2023-01-10T12:10:00,mfh,88.47
2023-01-10T12:11:00,mfh,88.65
2023-01-10T12:12:00,mfh,88.51
2023-01-10T12:13:00,mfh,88.80
2023-01-10T12:14:00,mfh,88.57
2023-01-10T12:15:00,mfh,88.61
2023-01-10T12:16:00,mfh,88.45
2023-01-10T12:17:00,mfh,88.25
2023-01-10T12:18:00,mfh,88.48
2023-01-10T12:19:00,mfh,88.31
2023-01-10T12:20:00,mfh,88.41
2023-01-10T12:21:00,mfh,88.21
2023-01-10T12:22:00,mfh,88.38
2023-01-10T12:23:00,mfh,88.15
2023-01-10T12:24:00,mfh,88.21
2023-01-10T12:25:00,mfh,88.30
2023-01-10T12:26:00,mfh,88.28
2023-01-10T12:27:00,mfh,88.40
2023-01-10T12:28:00,mfh,88.55
2023-01-10T12:29:00,mfh,88.33
2023-01-10T12:30:00,mfh,88.33
2023-01-10T12:31:00,mfh,88.25
2023-01-10T12:32:00,mfh,88.44
2023-01-10T12:33:00,mfh,88.59
2023-01-10T12:34:00,mfh,88.31
2023-01-10T12:35:00,mfh,88.28
2023-01-10T12:36:00,mfh,88.18
2023-01-10T12:37:00,mfh,88.36
2023-01-10T12:38:00,mfh,88.32
2023-01-10T12:39:00,mfh,88.53
2023-01-10T12:40:00,mfh,88.28
2023-01-10T12:41:00,mfh,88.44
2023-01-10T12:42:00,mfh,88.28
2023-01-10T12:43:00,mfh,88.39
2023-01-10T12:44:00,mfh,88.39
2023-01-10T12:45:00,mfh,88.47
2023-01-10T12:46:00,mfh,88.23
2023-01-10T12:47:00,mfh,88.28
2023-01-10T12:48:00,mfh,88.37
2023-01-10T12:49:00,mfh,88.38
2023-01-10T12:50:00,mfh,88.46
2023-01-10T12:51:00,mfh,88.35
2023-01-10T12:52:00,mfh,88.51
2023-01-10T12:53:00,mfh,88.37
2023-01-10T12:54:00,mfh,88.32
2023-01-10T12:55:00,mfh,88.34
2023-01-10T12:56:00,mfh,88.39
2023-01-10T12:57:00,mfh,88.43
2023-01-10T12:58:00,mfh,88.29
2023-01-10T12:59:00,mfh,88.27
2023-01-10T13:00:00,mfh,88.27
2023-01-10T13:01:00,mfh,88.51
2023-01-10T13:02:00,mfh,88.39
2023-01-10T13:03:00,mfh,88.30
2023-01-10T13:04:00,mfh,88.45
2023-01-10T13:05:00,mfh,88.53
2023-01-10T13:06:00,mfh,88.56
2023-01-10T13:07:00,mfh,88.40
2023-01-10T13:08:00,mfh,88.71
2023-01-10T13:09:00,mfh,88.77
2023-01-10T13:10:00,mfh,88.58
2023-01-10T13:11:00,mfh,88.39
2023-01-10T13:12:00,mfh,88.38
2023-01-10T13:13:00,mfh,88.12
2023-01-10T13:14:00,mfh,88.14
2023-01-10T13:15:00,mfh,88.49
2023-01-10T13:16:00,mfh,88.43
2023-01-10T13:17:00,mfh,88.04
2023-01-10T13:18:00,mfh,88.10